Estación de Morza

Ultimos registro cada 15 minutos 76
Estación Fecha / Hora Temperatura Humedad Lluvia Velocidad Dirección Radiación Presion
76 Morza 03-09-2026 18:45 13,4 64 0 0 49 0 1021,3
75 Morza 03-09-2026 18:30 14,3 61 0 0 49 0 1021,2
74 Morza 03-09-2026 18:15 15,4 57 0 0 46 7 1020,9
73 Morza 03-09-2026 18:00 16,6 53 0 0,4 311 14 1020,9
72 Morza 03-09-2026 17:45 17,1 53 0 0 276 42 1020,5
71 Morza 03-09-2026 17:30 17,7 49 0 0,9 299 84 1020,6
70 Morza 03-09-2026 17:15 17,7 47 0 0,9 275 132 1020,4
69 Morza 03-09-2026 17:00 18,3 47 0 0,4 303 186 1020,4
68 Morza 03-09-2026 16:45 18,5 45 0 0,4 340 236 1020,3
67 Morza 03-09-2026 16:30 18,7 48 0 0,4 298 276 1020,2
66 Morza 03-09-2026 16:15 18,9 46 0 1,3 252 320 1020,2
65 Morza 03-09-2026 16:00 18,7 47 0 0,9 333 357 1020,2
64 Morza 03-09-2026 15:45 18,7 52 0 0,9 252 399 1020,3
63 Morza 03-09-2026 15:30 18,5 49 0 1,8 275 431 1020,3
62 Morza 03-09-2026 15:15 18,4 50 0 0,4 282 466 1020,4
61 Morza 03-09-2026 15:00 18,1 55 0 0,4 74 497 1020,3
60 Morza 03-09-2026 14:45 18 58 0 1,3 263 524 1020,3
59 Morza 03-09-2026 14:30 17,6 58 0 0,9 227 550 1020,4
58 Morza 03-09-2026 14:15 17,6 62 0 0 317 571 1020,6
57 Morza 03-09-2026 14:00 17,4 67 0 0 172 591 1020,7
56 Morza 03-09-2026 13:45 16,8 71 0 0,4 83 603 1020,9
55 Morza 03-09-2026 13:30 17,1 68 0 0,9 294 621 1021,2
54 Morza 03-09-2026 13:15 16,6 72 0 0,4 275 631 1021,5
53 Morza 03-09-2026 13:00 16,1 71 0 0 201 636 1021,6
52 Morza 03-09-2026 12:45 15,1 74 0 0,4 117 645 1022
51 Morza 03-09-2026 12:30 14,7 77 0 0,4 31 652 1022,1
50 Morza 03-09-2026 12:15 14,1 77 0 0 209 246 1022,1
49 Morza 03-09-2026 12:00 13,2 78 0 0,9 88 700 1022,2
48 Morza 03-09-2026 11:45 12,9 86 0 1,8 284 707 1022,4
47 Morza 03-09-2026 11:30 12,2 86 0 0,4 338 694 1022,5
46 Morza 03-09-2026 11:15 11,8 87 0 0,4 308 710 1022,6
45 Morza 03-09-2026 11:00 11,5 90 0 0 263 585 1022,7
44 Morza 03-09-2026 10:45 10,6 94 0 0 195 587 1022,8
43 Morza 03-09-2026 10:30 9,6 94 0 0 85 341 1022,9
42 Morza 03-09-2026 10:15 9,1 94 0 0,4 290 185 1022,8
41 Morza 03-09-2026 10:00 8,9 95 0 0,4 281 200 1022,7
40 Morza 03-09-2026 09:45 8,7 95 0 0,9 274 174 1022,7
39 Morza 03-09-2026 09:30 8,8 95 0 0,4 247 134 1022,7
38 Morza 03-09-2026 09:15 8,8 94 0 0,9 280 113 1022,6
37 Morza 03-09-2026 09:00 8,7 94 0 0,9 282 76 1022,1
36 Morza 03-09-2026 08:45 8,7 94 0 0,4 272 63 1022,4
35 Morza 03-09-2026 08:30 8,5 94 0 0 283 49 1022,1
34 Morza 03-09-2026 08:15 8,5 94 0 0,4 267 42 1021,9
33 Morza 03-09-2026 08:00 8,5 94 0 0 271 35 1022
32 Morza 03-09-2026 07:45 8,5 94 0 0 281 28 1021,8
31 Morza 03-09-2026 07:30 8,4 93 0 0,4 282 14 1021,7
30 Morza 03-09-2026 07:15 8,5 93 0 0,4 276 0 1021,5
29 Morza 03-09-2026 07:00 8,7 93 0 0,4 286 0 1021,4
28 Morza 03-09-2026 06:45 8,7 93 0 0 283 0 1021,4
27 Morza 03-09-2026 06:30 8,8 92 0 0 263 0 1021,5
26 Morza 03-09-2026 06:15 8,9 93 0 0 284 0 1021,6
25 Morza 03-09-2026 06:00 9 92 0 0 291 0 1021,4
24 Morza 03-09-2026 05:45 9,1 92 0 0 286 0 1021,1
23 Morza 03-09-2026 05:30 9,2 92 0 0,9 288 0 1021,1
22 Morza 03-09-2026 05:15 9,3 92 0 0 273 0 1020,9
21 Morza 03-09-2026 05:00 9,4 92 0 0,4 308 0 1020,8
20 Morza 03-09-2026 04:45 9,4 92 0 0,4 258 0 1020,8
19 Morza 03-09-2026 04:30 9,4 93 0 0 257 0 1020,8
18 Morza 03-09-2026 04:15 9,4 92 0 0 284 0 1020,7
17 Morza 03-09-2026 04:00 9,7 92 0 0 283 0 1020,8
16 Morza 03-09-2026 03:45 9,9 93 0 0 273 0 1020,8
15 Morza 03-09-2026 03:30 10,2 93 0 0 253 0 1020,9
14 Morza 03-09-2026 03:15 10,4 92 0 0,4 258 0 1020,6
13 Morza 03-09-2026 03:00 10,7 92 0 0,4 287 0 1020,8
12 Morza 03-09-2026 02:45 10,9 92 0 0,4 303 0 1020,7
11 Morza 03-09-2026 02:30 11,2 92 0 0 253 0 1020,7
10 Morza 03-09-2026 02:15 11,4 92 0 0,4 257 0 1020,7
9 Morza 03-09-2026 02:00 11,6 91 0 0,4 86 0 1020,8
8 Morza 03-09-2026 01:45 11,8 91 0 0,4 182 0 1020,6
7 Morza 03-09-2026 01:30 11,9 90 0 0,4 286 0 1020,7
6 Morza 03-09-2026 01:15 12,1 90 0 0 247 0 1020,6
5 Morza 03-09-2026 01:00 12,2 91 0 0 130 0 1020,6
4 Morza 03-09-2026 00:45 12,2 91 0 0 123 0 1020,8
3 Morza 03-09-2026 00:30 12,3 92 0 0 123 0 1020,4
2 Morza 03-09-2026 00:15 12,4 91 0 0 123 0 1020,5
1 Morza 03-09-2026 00:00 12,5 91 0 0 123 0 1020,6